GFSWCAN_925_thetae_111.txt.gz
Theta_e
294 295 294 294 295 295 294 294 293 294 293 293 293 293 293 295 295 297 298 297 297 299 301 301 301 301 301 302 303 303 303 305 305 306 307 308 309 309 308 308 310 311 312 314 313 313 314 308 311 312 307 307 307 306
293 293 294 293 294 295 294 293 293 292 292 293 292 292 293 294 295 296 298 297 296 297 299 299 300 301 301 300 302 301 302 302 303 305 306 306 307 309 308 310 309 311 310 310 314 311 305 303 303 302 304 305 304 304
293 292 293 293 293 294 294 294 293 292 292 292 292 292 292 292 294 295 298 297 296 295 297 298 301 301 300 300 300 302 301 301 303 304 305 305 306 308 309 310 309 310 307 309 308 302 301 301 300 301 301 301 301 301
291 292 292 292 293 293 294 294 293 291 291 292 291 292 292 293 294 295 298 297 296 297 301 302 301 301 300 300 300 300 301 301 302 304 304 304 304 305 306 307 308 308 307 306 306 302 301 299 298 299 298 298 298 297
290 290 291 292 292 292 292 294 292 290 290 292 291 291 292 293 294 296 298 297 297 299 303 302 301 301 300 300 300 301 300 301 300 303 303 303 303 306 306 308 307 303 301 305 305 299 301 298 297 296 295 295 295 296
290 290 290 291 290 291 292 292 293 291 291 292 291 291 292 293 294 297 297 298 297 297 299 302 302 301 300 300 300 301 300 300 300 301 302 302 303 305 307 309 300 298 297 297 299 297 296 295 294 293 293 291 291 292
289 290 290 290 291 290 291 292 292 292 291 292 292 291 292 293 294 297 299 297 297 297 299 302 302 301 300 301 300 300 299 300 299 300 302 303 304 305 307 307 299 296 295 296 296 297 295 294 294 292 291 290 290 290
289 289 289 290 291 291 290 291 292 292 292 292 291 291 291 292 294 296 297 296 297 296 299 301 302 302 301 301 301 299 300 300 300 301 303 303 305 305 306 299 297 295 294 294 294 293 292 291 290 291 291 291 291 290
289 289 289 289 289 290 291 291 292 292 291 291 290 292 293 294 296 297 297 297 296 298 301 299 302 304 302 303 303 302 301 302 302 303 304 304 305 306 299 297 295 293 293 292 293 292 291 290 290 289 289 290 290 288
290 289 288 289 289 291 291 291 292 291 291 291 292 293 295 294 296 297 295 295 296 297 300 301 301 304 303 303 303 303 302 305 303 304 303 305 303 294 293 292 291 290 290 291 293 293 291 290 288 287 286 286 286 285
290 289 288 289 290 290 291 292 292 291 291 292 293 296 296 297 297 296 299 300 300 301 300 301 302 304 303 304 306 304 305 303 304 305 304 305 302 293 290 289 288 288 287 287 287 287 287 287 287 286 285 283 282 281
289 289 289 289 289 290 291 292 291 291 292 293 295 294 295 297 299 301 301 301 300 301 302 301 300 302 303 303 304 304 304 306 304 305 305 305 293 290 289 288 287 285 285 284 283 283 282 282 282 282 281 280 279 277
289 288 289 289 289 291 292 292 290 291 292 292 293 294 298 300 304 302 302 301 301 302 302 301 302 302 303 303 303 304 305 306 305 306 305 295 290 288 287 286 284 283 282 282 280 279 278 277 277 277 276 276 276 275
289 289 289 289 290 291 292 291 291 291 291 295 297 299 302 302 303 303 303 304 303 304 302 302 304 302 303 302 304 304 306 305 307 306 301 292 289 286 285 284 283 280 279 279 277 276 276 275 275 275 275 275 275 274
289 289 289 290 291 292 291 290 291 291 291 295 297 303 300 297 297 297 298 300 298 302 304 303 303 302 302 304 301 303 304 306 302 300 293 289 286 285 283 282 280 278 278 278 277 276 276 275 275 275 274 274 274 274
289 289 291 291 291 291 291 291 290 290 291 292 292 294 294 297 296 297 299 297 295 300 303 303 302 303 302 302 302 303 303 304 296 291 288 286 284 283 281 280 278 278 278 277 277 276 276 275 275 275 274 273 273 273
290 291 291 291 291 291 291 290 289 290 291 291 292 291 294 299 298 295 296 296 294 300 303 303 303 302 299 300 299 296 298 293 289 288 287 284 283 281 279 278 277 278 278 277 277 276 276 276 276 277 276 275 275 274
291 291 292 291 290 289 289 289 290 290 290 290 292 291 290 292 293 293 293 293 297 298 299 299 298 298 300 300 298 291 289 288 287 285 284 282 281 280 280 279 278 278 278 277 277 276 276 277 278 277 276 275 275 275
292 293 293 291 290 291 291 290 290 290 289 289 289 289 290 289 289 290 291 293 294 294 295 296 297 298 296 292 291 289 287 286 285 284 282 281 280 279 278 278 278 278 278 278 279 279 278 278 278 278 277 277 277 276
291 291 293 293 291 292 291 291 291 291 291 289 289 290 289 290 289 290 290 291 292 294 294 294 293 291 291 290 289 288 286 285 284 283 282 281 279 279 279 280 280 279 279 278 278 278 278 278 278 277 277 276 277 276
291 290 290 291 292 292 292 292 291 290 290 290 289 290 289 289 290 291 290 289 292 291 291 289 287 286 286 286 285 285 284 285 285 285 284 282 281 281 280 280 280 280 281 280 281 279 279 279 277 277 277 276 275 274
292 291 293 292 293 292 292 291 292 291 290 290 290 291 291 292 291 289 287 290 289 286 287 287 285 285 285 285 284 284 284 283 283 283 282 281 282 282 282 281 281 281 280 280 279 279 278 277 276 276 275 274 274 273
292 292 293 293 293 293 291 292 292 292 292 291 291 291 291 290 287 285 288 287 285 284 285 285 285 284 283 282 282 282 282 283 283 282 282 283 282 282 281 280 280 280 280 278 278 278 277 274 274 275 274 274 273 272
289 289 292 294 293 292 292 292 292 291 291 291 290 288 289 289 286 289 290 288 284 283 283 282 283 283 283 282 284 283 283 283 282 282 281 281 281 280 280 279 279 278 278 277 277 276 275 275 273 274 274 273 273 273
293 288 291 291 292 293 292 292 291 291 291 290 289 288 288 286 289 290 290 287 284 285 283 283 284 284 285 285 283 281 281 282 282 281 280 281 280 279 278 278 277 276 276 276 276 276 275 274 274 273 273 273 273 272
291 287 291 292 292 293 293 293 292 292 291 290 289 288 287 289 289 291 289 287 286 285 285 285 285 286 285 283 283 281 280 280 280 280 278 279 279 280 279 278 278 276 274 275 275 275 274 273 273 272 272 272 271 271
291 289 287 285 288 290 291 290 290 291 291 290 289 288 289 289 291 287 287 286 286 284 283 284 284 284 284 282 281 280 278 278 279 279 276 275 275 275 277 278 277 275 273 273 273 273 274 273 273 272 272 272 272 271
286 286 288 286 286 287 288 290 290 290 290 288 289 289 289 291 289 285 286 285 284 283 283 283 283 282 281 280 279 277 276 274 273 273 273 273 273 272 272 272 271 271 271 270 271 271 272 272 272 271 271 271 271 270
286 284 284 281 283 284 284 286 286 284 282 286 289 287 284 281 279 280 282 283 282 282 282 281 280 280 278 278 277 277 275 275 275 275 276 277 274 272 271 271 270 271 271 269 269 269 270 270 270 271 270 270 270 269
283 283 284 281 282 284 282 280 281 279 280 281 281 280 280 278 276 276 281 281 281 281 280 279 278 278 277 277 277 276 276 276 276 276 277 277 276 273 271 270 270 270 270 271 270 268 267 268 268 268 268 268 269 269
281 284 284 284 283 281 279 278 278 278 280 280 280 283 282 279 276 276 279 281 281 280 279 278 278 278 277 277 276 274 274 272 272 272 273 273 272 271 271 270 270 270 270 269 269 269 269 269 269 269 269 269 268 267
283 282 283 283 282 279 279 281 282 282 282 283 281 280 280 282 281 278 275 277 279 279 279 278 278 277 277 276 276 274 274 273 271 271 270 270 271 270 268 268 267 268 269 268 268 268 267 268 268 268 268 268 267 267
281 281 282 282 281 282 281 282 282 282 282 283 282 282 282 284 282 278 273 274 277 279 278 278 277 275 274 272 272 271 271 270 270 269 269 269 268 267 267 267 267 267 267 268 268 267 266 266 267 266 266 266 265 265

GFSWCAN_925_thetae_114.txt.gz
Theta_e
296 296 295 295 297 296 295 294 294 294 294 293 293 293 294 295 296 297 299 298 298 299 300 301 302 302 303 303 304 304 303 304 305 306 307 308 308 308 309 309 310 310 312 310 312 312 314 304 308 310 307 305 306 304
295 295 295 295 296 295 295 294 294 293 293 293 293 293 294 294 295 296 299 298 297 296 299 298 299 300 302 302 303 302 302 302 303 305 306 306 307 308 308 311 311 311 309 309 311 309 303 302 303 302 303 303 303 303
293 294 294 294 294 295 295 294 293 293 292 292 293 293 292 293 294 295 298 297 296 296 298 299 303 302 301 301 301 303 302 302 303 304 305 306 307 308 309 309 308 309 307 308 308 302 301 300 300 300 300 300 300 300
292 293 293 293 293 294 295 294 294 293 292 292 292 292 292 292 292 295 297 297 296 297 301 302 302 302 301 301 302 301 302 302 302 303 304 305 305 304 306 306 308 307 307 306 305 301 301 298 298 298 298 297 298 297
291 292 291 292 292 293 294 294 294 293 291 293 292 292 292 292 293 294 297 297 297 298 302 302 301 301 301 301 301 301 301 301 301 302 304 304 303 305 306 307 305 302 300 303 302 297 300 297 296 296 294 294 294 294
290 291 291 291 292 292 293 294 294 292 291 292 292 292 291 292 292 296 298 298 298 298 299 302 302 303 301 301 301 301 301 301 301 301 303 303 302 304 306 307 300 298 296 297 299 297 296 295 294 294 293 292 292 292
290 290 290 291 291 291 292 292 293 292 291 291 292 292 291 293 294 296 298 296 298 298 299 302 302 302 301 301 302 302 301 302 301 301 301 302 303 304 306 306 299 296 295 295 296 297 296 294 293 293 293 292 292 291
290 290 290 290 290 290 291 292 292 293 292 291 292 292 291 292 293 294 295 296 297 297 298 302 302 304 301 302 301 300 300 301 301 301 302 303 304 306 306 300 298 296 295 295 294 293 292 292 291 291 291 292 292 290
290 289 290 290 290 290 290 291 292 292 292 291 292 290 292 293 294 296 297 297 297 297 301 301 302 304 302 303 302 301 301 301 301 303 302 303 305 305 301 298 296 294 294 294 294 293 292 291 290 289 288 288 289 288
290 289 289 289 290 290 290 290 292 292 292 292 292 293 293 294 295 296 297 295 295 293 299 302 301 303 304 305 304 303 302 303 304 304 303 305 301 295 293 293 292 291 291 292 294 293 290 290 289 287 285 285 285 284
290 290 289 289 289 290 290 291 292 292 292 292 293 294 295 296 296 297 299 299 300 301 300 301 302 304 303 305 303 303 305 304 304 304 305 305 300 294 291 290 289 288 287 287 288 287 286 287 287 286 284 282 281 280
291 290 289 289 290 290 290 291 291 291 292 292 294 295 295 297 298 300 301 300 301 300 303 303 303 303 304 304 304 303 304 304 304 306 305 304 294 291 289 288 287 286 285 284 283 282 281 281 282 281 280 279 278 277
290 290 289 289 290 290 290 292 291 292 292 293 294 295 296 298 301 301 302 301 303 304 304 304 302 303 304 304 304 302 302 304 306 307 303 295 291 289 288 287 285 283 283 282 280 279 277 277 276 277 277 276 276 275
290 290 289 289 289 290 291 292 291 292 292 294 296 298 300 300 302 302 304 305 306 307 305 302 303 304 304 303 305 301 304 304 306 307 299 292 289 287 286 285 282 281 280 279 278 277 276 276 276 276 275 275 275 275
290 289 289 289 289 290 291 291 291 291 292 294 297 299 300 300 299 299 301 303 304 305 304 304 304 303 304 303 302 303 304 305 303 299 293 289 287 285 284 282 280 279 279 278 277 277 276 276 276 275 275 275 274 274
289 289 289 289 290 290 292 291 291 291 292 294 294 296 297 299 298 299 299 299 301 304 303 304 303 302 303 303 303 304 304 304 296 292 289 286 285 283 282 281 280 279 279 278 277 277 276 276 276 275 275 274 274 274
289 288 289 289 290 291 291 291 291 293 294 294 295 293 294 298 300 297 298 297 297 302 305 303 303 303 302 301 301 298 298 293 290 289 287 285 283 281 279 279 279 279 279 278 278 277 277 277 277 278 277 276 276 274
289 290 289 290 291 291 290 290 292 292 292 292 293 294 293 294 295 295 295 295 298 301 301 302 301 300 301 303 301 293 290 289 287 286 284 283 281 280 280 279 279 279 279 278 277 277 277 278 279 278 277 277 276 276
291 291 291 291 291 292 292 291 291 292 292 291 291 292 292 292 292 292 294 295 297 297 298 299 300 301 299 295 293 290 289 287 285 284 283 282 281 280 279 279 279 279 278 278 279 280 279 278 279 279 278 278 278 277
291 291 291 290 292 293 292 292 292 291 291 291 291 292 293 292 291 293 294 295 295 297 297 297 296 294 293 292 291 289 288 287 284 283 282 281 280 279 279 280 280 280 280 279 279 279 279 279 279 278 277 276 278 277
290 292 291 290 291 293 293 293 292 291 290 292 291 291 291 291 293 294 293 292 295 295 293 291 290 290 289 289 288 287 286 285 286 285 283 282 281 282 282 281 280 281 281 282 282 279 280 279 278 278 278 276 276 275
290 291 291 291 293 292 292 293 292 292 292 291 292 293 293 293 293 292 291 293 292 290 290 288 287 288 287 287 286 286 286 286 285 284 283 282 283 282 282 282 282 282 282 281 281 280 279 278 277 277 276 275 275 273
291 292 292 293 293 293 292 293 293 292 292 293 292 292 292 292 292 289 292 291 288 287 288 287 286 286 286 285 284 284 284 285 284 284 283 284 284 283 282 282 282 282 281 279 279 279 277 275 275 276 275 275 275 274
291 292 295 295 294 292 293 294 293 292 292 293 294 292 292 292 289 291 293 291 287 287 286 286 285 285 284 283 284 284 284 284 284 284 283 282 282 282 281 281 280 280 279 279 278 277 276 276 274 275 275 274 274 274
295 290 293 293 294 293 293 294 293 293 293 293 292 291 291 289 292 293 293 290 286 286 285 285 285 285 285 286 285 284 284 283 283 283 282 282 282 280 280 279 279 278 277 278 277 277 276 275 275 275 274 274 274 273
293 289 293 294 294 295 295 294 294 294 293 293 292 291 290 292 293 294 293 290 287 286 286 287 287 287 287 285 284 283 283 283 283 282 281 281 281 281 280 279 279 277 276 276 277 276 276 274 274 274 273 273 272 271
293 291 289 288 292 293 293 293 294 294 293 293 292 291 291 292 292 291 289 288 287 285 286 286 286 287 286 285 283 282 281 281 282 281 279 278 278 278 279 279 279 276 275 275 275 275 275 274 274 273 273 273 273 272
288 289 289 289 290 290 292 293 293 293 293 292 292 291 291 293 292 288 288 287 286 285 285 286 286 285 284 283 281 280 278 277 277 276 275 275 275 275 274 274 274 273 273 272 273 273 273 274 273 273 272 272 272 271
288 287 286 283 287 288 287 289 289 286 284 289 293 290 286 283 283 285 286 285 285 285 285 285 284 283 281 280 279 278 276 276 276 276 276 277 275 274 273 271 271 272 272 270 270 271 271 272 272 272 272 271 271 270
286 286 286 284 285 287 284 283 284 282 282 283 283 282 281 279 279 279 283 284 284 285 284 283 281 281 280 280 279 278 277 277 277 277 278 279 277 274 273 272 272 271 272 272 270 269 269 269 269 269 269 269 270 270
285 287 287 287 286 283 281 280 280 281 282 283 284 285 281 279 279 278 280 283 283 282 282 280 280 280 279 279 279 278 278 277 276 276 276 275 274 273 272 272 272 271 272 271 271 271 270 270 270 271 270 270 270 269
286 286 286 286 284 281 281 284 284 285 284 285 283 282 281 283 281 280 278 279 283 282 281 280 280 280 279 279 278 277 276 274 273 273 273 272 272 272 271 271 270 270 270 270 270 270 268 269 270 270 270 269 269 268
285 285 285 285 284 284 283 285 285 284 285 285 284 285 285 284 281 277 275 276 277 280 280 280 279 278 277 275 275 274 273 272 271 271 272 272 271 269 269 268 269 269 269 269 269 269 268 268 268 268 267 267 267 266

GFSWCAN_925_thetae_117.txt.gz
Theta_e
297 297 298 297 296 295 295 294 294 294 294 293 293 293 294 295 296 298 299 298 297 297 297 300 302 302 301 301 301 300 299 299 299 300 305 304 304 305 307 311 311 308 306 303 307 308 308 303 304 306 305 305 304 303
296 296 296 296 297 295 295 294 295 294 293 293 293 293 293 294 295 296 298 298 298 296 297 297 297 297 299 300 300 300 301 300 300 299 300 301 302 303 305 311 308 310 308 308 305 305 302 300 301 300 301 300 300 301
295 295 295 296 295 296 295 295 294 293 293 293 293 293 293 293 294 295 297 297 297 296 296 296 298 302 301 300 300 300 299 301 302 301 301 302 303 298 306 304 307 307 306 304 305 302 300 298 297 298 298 299 298 296
294 294 294 294 295 296 295 295 294 293 292 292 292 293 293 292 293 294 296 297 296 296 297 299 301 301 302 302 301 301 301 301 300 299 300 299 302 301 302 303 306 303 301 299 302 299 298 296 296 296 295 295 295 295
293 294 294 293 293 294 295 294 294 293 292 291 291 293 293 291 292 292 295 297 297 297 299 296 298 301 300 301 301 302 301 300 300 296 297 297 300 300 301 304 304 300 299 300 300 297 298 295 295 293 292 293 292 293
292 292 292 293 293 293 295 295 294 294 293 291 292 293 292 291 292 294 295 297 296 298 298 297 299 302 301 301 301 301 300 299 298 298 294 297 300 298 302 300 298 297 296 296 297 296 295 294 293 293 292 292 292 291
291 291 292 292 292 293 293 294 294 294 292 292 292 292 292 291 292 295 296 296 297 298 298 297 298 301 301 301 300 299 300 299 298 298 298 298 298 301 299 299 298 296 295 295 295 296 294 292 292 292 293 293 291 290
290 291 291 291 291 292 293 293 294 292 291 291 291 292 291 291 292 293 294 295 297 297 298 298 297 301 301 300 299 297 299 300 298 297 298 299 300 301 301 299 297 295 295 295 293 292 291 291 290 289 289 291 289 288
289 289 289 290 290 290 292 292 293 293 291 291 290 291 291 291 293 294 295 297 296 296 299 298 298 295 301 301 300 299 299 300 297 298 298 298 296 298 299 296 294 293 292 293 293 292 291 290 288 287 287 287 286 284
290 290 290 289 289 290 290 292 292 292 292 292 291 292 290 292 294 296 296 296 295 296 297 299 297 297 300 297 300 299 301 302 299 298 300 298 294 293 291 290 290 289 288 289 292 288 288 288 287 285 284 283 282 281
290 289 289 289 289 289 290 291 292 293 292 291 292 291 292 293 295 296 295 296 297 298 295 297 298 297 300 298 296 297 302 301 301 301 303 303 297 292 289 288 287 286 284 284 282 282 282 283 283 282 281 279 279 279
291 290 290 290 290 290 289 290 292 291 291 291 292 294 294 295 295 295 298 296 298 298 296 296 297 298 299 299 300 300 300 299 301 301 301 297 292 289 287 286 284 283 282 280 279 279 278 279 279 278 278 277 277 277
290 291 290 290 290 290 289 291 291 292 291 292 294 294 294 295 296 296 297 297 295 296 298 296 295 298 298 299 295 299 301 300 296 301 298 293 290 287 285 283 282 281 280 279 278 277 276 275 276 275 275 275 274 275
290 290 290 289 290 290 289 291 291 292 291 291 292 291 294 298 297 295 296 297 296 297 298 297 296 297 295 298 300 299 297 301 301 299 295 290 287 285 283 281 280 279 277 277 276 276 275 275 275 275 275 275 274 274
290 291 290 290 290 290 290 291 291 292 292 292 294 292 297 299 297 298 298 297 297 296 297 296 297 298 298 297 299 298 300 298 299 293 288 286 284 283 281 280 278 277 276 276 277 276 276 275 274 274 274 274 274 274
290 290 290 289 289 290 290 292 291 291 291 293 293 293 295 298 297 298 298 299 296 293 293 295 296 299 296 299 301 296 300 298 294 288 285 283 281 280 279 278 279 278 277 277 277 276 276 276 275 274 274 274 273 273
290 289 289 289 289 290 291 290 290 289 290 293 293 292 293 295 297 296 296 297 296 296 299 299 298 299 297 297 300 296 294 286 286 285 283 281 279 277 277 278 279 279 278 278 277 276 276 276 275 275 275 275 275 274
289 289 289 289 290 290 290 290 291 291 292 290 289 293 292 292 295 294 294 294 296 298 297 299 296 297 296 299 295 290 286 286 284 282 280 278 278 278 278 279 279 278 278 277 277 277 277 277 277 277 276 276 276 275
289 289 289 290 290 291 291 290 291 292 291 290 289 290 291 291 288 289 292 293 294 295 296 294 294 298 296 291 290 287 285 283 282 280 279 280 279 279 279 279 278 278 277 277 277 278 278 278 278 278 278 278 277 276
290 290 289 290 291 292 292 291 292 291 290 288 289 289 291 291 289 291 292 293 294 295 296 293 294 292 287 284 285 285 284 282 281 280 279 277 279 279 279 279 279 278 278 279 279 279 278 278 278 277 276 276 276 274
290 290 291 291 292 292 293 292 292 291 289 289 290 290 290 288 289 292 290 291 293 292 290 288 289 288 287 287 286 284 283 282 280 279 279 278 279 279 278 280 280 279 280 279 279 278 279 278 277 277 276 275 275 273
291 291 291 290 291 292 293 292 292 290 290 290 291 291 291 292 292 291 289 291 290 285 284 283 286 284 283 282 284 284 284 284 283 281 280 280 280 280 280 280 280 281 282 281 281 279 278 277 277 276 275 274 274 273
291 290 291 291 292 292 292 292 292 291 289 292 293 292 290 291 289 288 289 290 283 284 285 285 286 286 284 285 286 285 284 283 282 281 281 282 282 282 281 281 282 281 280 279 279 278 276 275 275 275 274 274 274 273
292 292 293 294 294 293 292 294 294 293 292 292 293 292 293 291 288 287 292 286 281 286 284 284 284 283 283 283 280 284 284 283 282 282 283 282 281 282 281 281 280 280 280 278 278 276 276 276 275 274 274 274 274 274
291 290 291 294 293 293 294 292 293 292 292 291 289 289 288 287 285 288 293 285 285 285 285 284 283 283 282 280 282 284 284 283 283 281 282 282 281 281 280 279 279 278 278 277 277 276 276 275 275 275 274 274 274 273
294 290 291 293 294 294 294 293 291 292 292 288 287 287 285 285 288 287 289 285 285 285 284 284 283 283 283 283 283 282 283 283 283 282 282 281 280 279 278 276 276 276 277 277 277 276 275 274 274 274 273 273 272 272
292 289 289 288 291 293 291 292 293 288 286 286 286 285 285 285 285 285 284 282 283 285 285 285 284 284 284 283 283 283 283 283 282 281 280 280 280 280 280 278 277 277 276 275 276 275 275 274 273 273 273 273 273 272
289 289 285 287 287 289 290 288 287 287 288 289 288 285 284 284 285 283 284 286 285 284 285 286 286 286 284 282 282 281 280 280 279 279 278 277 276 277 277 277 276 276 275 274 274 274 274 274 273 273 272 272 272 271
288 287 282 278 282 284 283 285 286 283 283 285 285 283 281 280 280 278 283 285 285 285 285 284 282 283 281 280 280 280 279 278 276 272 271 270 273 273 273 274 274 273 272 272 272 272 272 273 272 272 272 271 271 270
284 286 283 280 280 283 280 280 281 278 280 281 280 279 278 276 279 280 283 285 285 285 284 281 280 280 279 278 277 277 277 277 277 275 274 273 274 273 272 271 272 272 271 271 270 270 270 271 271 270 270 270 270 269
285 287 285 284 282 280 278 276 279 279 278 280 279 278 275 275 280 279 279 281 283 281 281 280 280 280 279 278 277 277 277 277 277 277 277 278 276 274 273 272 271 272 272 271 271 270 270 270 270 270 270 270 270 269
283 283 281 282 279 277 278 282 283 284 278 280 278 275 276 275 276 277 276 276 281 281 280 280 280 280 279 279 278 278 278 276 276 276 276 276 274 273 272 272 271 271 271 271 270 270 270 269 270 270 270 270 269 269
282 282 282 279 279 281 279 281 283 281 284 283 282 282 281 278 274 274 274 274 274 277 280 280 280 279 279 279 278 277 276 276 275 274 273 273 273 272 272 271 271 271 270 270 269 269 268 268 268 268 268 268 267 267

GFSWCAN_925_thetae_120.txt.gz
Theta_e
298 297 297 297 296 296 296 295 295 294 294 293 293 294 294 296 297 298 298 298 296 292 296 298 300 301 300 299 299 298 296 298 297 299 302 301 302 304 306 308 308 307 305 306 304 305 305 300 301 303 302 299 301 301
297 296 297 297 296 295 295 295 295 295 294 293 293 293 293 295 296 297 298 298 297 295 294 297 297 297 298 300 298 298 299 299 299 296 296 299 301 301 303 304 307 309 307 304 304 304 300 298 299 298 299 299 297 296
297 297 298 298 296 295 295 294 294 294 293 293 293 293 293 294 295 296 298 297 296 295 294 294 298 301 299 298 298 298 296 299 301 298 298 299 301 295 301 301 304 305 302 303 303 300 298 296 296 296 296 296 296 296
296 296 296 295 295 296 295 294 294 293 293 293 293 293 293 293 294 295 296 296 296 295 295 295 298 297 300 301 299 299 299 300 299 297 298 296 300 299 300 301 302 302 298 300 299 298 297 295 294 293 293 293 293 293
295 295 295 296 295 295 295 295 294 293 292 292 292 293 292 292 293 293 295 296 296 296 295 294 296 300 301 300 301 300 300 297 295 293 292 295 297 297 298 301 299 298 297 296 294 293 297 294 293 292 291 292 291 291
293 294 294 293 296 296 294 295 294 292 292 292 292 293 292 291 291 292 290 296 296 297 295 296 295 297 300 300 300 300 299 298 296 296 291 292 297 296 295 302 298 297 295 296 297 294 293 292 292 292 292 292 290 289
293 293 293 293 294 294 294 294 293 293 292 291 292 293 292 291 292 294 292 296 297 297 296 296 295 298 300 300 298 297 300 299 298 297 296 296 296 298 295 299 297 296 295 295 294 293 291 292 291 291 290 292 289 287
292 292 292 293 293 295 295 294 294 293 291 291 291 291 291 291 291 291 293 295 297 297 297 297 295 299 300 298 297 295 298 299 298 297 295 297 297 298 297 297 296 295 295 294 292 291 290 289 288 288 288 289 287 285
290 291 291 292 293 293 294 294 294 292 290 291 291 291 291 290 291 292 293 295 296 296 297 297 296 298 299 298 296 296 295 294 294 295 296 296 293 291 295 294 292 291 290 292 293 291 289 287 286 285 285 284 283 283
289 289 291 290 291 292 293 293 293 291 291 291 291 290 282 292 293 295 296 296 296 296 296 297 295 295 297 290 298 296 299 300 298 296 297 294 293 291 289 288 287 286 285 290 287 286 286 286 283 282 281 281 280 280
289 289 289 290 290 291 292 293 293 291 291 290 289 290 291 293 295 294 294 295 296 297 295 296 295 294 296 295 292 293 300 300 301 298 298 300 294 290 287 286 284 283 282 281 281 281 281 283 281 280 279 279 278 278
290 290 289 289 289 290 291 292 293 292 291 290 291 293 293 293 292 293 294 295 297 296 291 293 294 296 296 294 296 299 300 299 302 300 303 296 289 286 285 283 281 280 279 278 278 278 279 278 278 278 277 276 276 276
290 290 290 290 290 290 290 292 292 290 291 292 292 293 294 289 294 295 295 296 291 292 291 293 293 297 299 296 297 291 300 299 293 294 293 291 288 284 282 281 280 279 278 278 277 276 276 275 275 274 273 274 274 275
290 290 290 290 290 289 290 292 291 291 291 288 291 289 293 293 291 292 293 292 292 291 294 293 292 296 291 295 288 292 294 299 300 296 292 287 285 283 281 280 279 277 276 275 274 274 274 274 274 274 274 274 274 274
290 290 290 290 290 290 289 291 291 291 290 288 292 290 287 294 295 294 295 298 296 291 295 294 294 295 292 298 298 298 301 301 296 291 283 283 282 281 280 279 277 275 274 274 275 275 274 274 274 274 274 274 274 274
290 290 290 289 290 289 290 291 291 290 290 290 291 289 289 294 295 297 298 299 296 292 289 293 295 298 297 298 299 298 299 294 288 285 282 281 279 278 277 277 276 276 276 276 276 276 275 274 274 273 273 273 273 273
290 290 290 289 290 290 291 291 290 288 287 290 287 284 287 292 294 295 296 296 295 294 292 299 296 298 296 298 298 297 296 282 284 284 281 279 278 276 276 276 276 276 276 276 276 275 275 275 275 274 274 274 274 274
289 289 289 289 290 290 290 290 289 289 291 286 287 286 290 291 292 292 293 293 296 295 294 298 295 297 296 298 291 285 286 283 279 280 278 276 276 276 277 276 277 277 277 277 276 276 277 276 276 276 276 276 275 275
289 289 289 289 290 290 291 290 290 288 286 285 284 287 290 289 288 288 287 292 293 293 294 292 290 292 288 283 280 279 282 279 280 275 271 276 277 277 278 278 277 277 277 277 277 277 277 277 278 278 278 276 276 276
288 289 288 289 291 291 291 289 291 290 289 286 287 288 288 284 283 282 290 291 293 295 295 293 286 286 283 280 278 283 280 280 279 279 277 273 278 278 278 277 277 277 277 277 277 278 277 277 277 277 276 276 275 275
290 290 288 290 291 291 290 290 291 290 289 288 289 290 286 285 288 291 290 290 293 289 285 280 286 280 280 283 283 282 281 280 279 278 278 277 276 277 278 278 278 277 278 278 278 278 278 278 277 277 276 275 274 273
290 289 289 290 289 291 291 292 291 288 289 290 290 289 287 286 290 292 287 287 286 282 281 281 283 279 282 280 281 282 281 280 279 278 278 278 275 276 277 278 279 277 279 279 279 278 278 277 277 276 275 274 274 273
289 290 289 289 290 290 290 291 291 290 288 289 291 290 286 286 286 287 283 287 281 279 281 282 282 284 282 282 282 281 281 280 279 278 278 278 278 279 279 279 280 279 279 280 279 278 277 276 276 275 274 274 274 272
290 290 290 291 291 291 289 290 292 292 291 291 291 288 291 288 287 284 286 282 278 279 282 281 283 282 282 283 282 282 282 281 279 279 279 279 279 279 280 280 280 281 280 279 278 277 276 275 275 275 274 274 274 274
291 291 290 293 292 291 290 291 290 289 284 285 289 284 288 284 281 281 285 281 285 284 284 284 284 284 284 279 280 281 282 281 280 279 280 281 281 280 280 281 281 280 279 278 277 276 276 275 274 275 274 274 273 273
292 288 288 292 291 291 289 287 285 285 288 287 283 283 280 280 285 285 285 277 283 285 285 284 283 282 282 283 282 281 282 282 281 281 281 281 281 279 277 276 276 277 278 278 277 276 275 275 274 274 274 273 273 273
288 289 289 288 290 293 287 287 289 284 282 282 282 280 279 282 281 281 280 278 279 284 285 283 283 283 282 282 283 283 283 282 282 282 282 281 281 281 280 277 276 278 277 277 277 277 276 275 274 274 273 273 273 272
287 289 288 286 286 286 285 283 282 284 281 284 282 282 282 280 280 279 281 284 285 285 284 283 283 283 283 282 282 282 282 282 281 280 279 279 279 279 279 279 278 278 277 276 276 276 275 275 274 273 273 272 272 272
287 286 284 281 280 282 280 281 281 280 280 280 278 277 277 278 276 277 279 282 283 284 283 281 280 282 281 281 281 282 281 279 277 274 273 269 273 275 277 278 277 277 276 275 274 274 274 274 274 273 272 272 272 271
283 284 280 275 277 279 275 275 275 271 275 277 278 277 275 275 278 276 278 282 284 282 280 280 279 279 277 277 276 276 277 279 280 279 276 272 275 276 275 275 275 275 274 273 272 272 272 272 272 272 271 271 271 270
282 283 279 276 276 273 271 269 274 273 270 274 270 271 272 272 278 274 273 275 280 281 280 278 278 278 277 276 276 276 276 278 278 278 278 277 277 275 274 273 273 272 272 271 271 270 270 270 270 270 270 269 269 269
276 276 275 276 273 270 269 274 274 273 271 270 270 266 269 270 272 272 271 272 273 274 278 279 278 278 279 279 279 279 279 278 277 277 277 277 277 276 274 272 272 272 272 271 270 270 270 270 270 270 270 270 270 269
273 270 269 270 272 275 271 274 278 278 278 275 274 273 272 267 269 268 270 271 270 270 273 277 279 279 279 279 278 278 277 277 277 276 276 276 276 275 273 272 271 272 271 271 270 270 270 269 269 269 269 269 268 268

GFSWCAN_925_thetae_123.txt.gz
Theta_e
298 297 297 296 296 296 296 295 295 295 294 294 293 293 295 297 298 298 298 297 296 292 295 297 300 300 299 297 298 297 295 295 296 297 300 300 302 303 305 307 305 306 305 304 303 304 302 299 300 302 301 298 297 296
298 297 297 296 296 296 296 295 295 295 294 293 293 293 295 297 298 298 298 297 297 293 294 297 298 298 298 299 296 296 297 298 298 294 293 298 300 299 302 303 303 301 305 304 304 303 299 298 299 298 298 298 297 295
298 297 297 297 296 296 296 295 294 294 293 293 293 293 294 296 296 297 297 296 295 291 291 294 298 298 298 297 298 296 295 297 299 296 296 297 300 294 300 300 302 303 299 301 302 300 298 296 295 295 295 294 294 294
297 297 297 296 297 296 296 295 295 294 293 293 293 293 294 295 295 297 296 296 295 295 291 295 297 297 299 299 299 298 299 299 298 295 297 295 299 298 299 300 301 301 298 299 299 298 296 294 293 292 293 292 292 290
297 297 297 297 295 295 295 294 294 293 293 293 293 293 293 293 294 295 296 295 296 294 293 294 295 298 299 298 300 298 298 296 294 292 291 295 296 296 297 299 301 298 296 295 289 295 296 294 293 292 290 291 290 291
296 296 297 296 295 295 295 294 293 293 293 293 293 292 292 292 293 293 289 294 296 296 291 294 294 295 298 299 300 299 298 297 296 296 291 291 295 295 292 299 298 297 296 296 297 294 291 291 290 291 293 291 289 288
294 295 296 295 295 295 295 294 293 292 291 292 293 292 291 291 292 292 291 296 296 296 295 291 294 297 299 299 296 299 300 298 299 298 296 295 295 297 293 300 296 295 295 294 293 293 291 291 290 289 291 288 287 285
294 294 294 295 294 294 294 294 292 292 291 292 293 292 291 290 292 292 293 296 296 297 296 291 294 300 299 298 298 293 298 299 299 299 295 296 296 295 294 297 296 295 294 293 291 289 288 286 285 286 287 286 284 283
293 293 293 294 293 293 294 293 293 291 291 292 292 291 290 290 290 291 294 296 296 295 295 295 293 294 299 297 294 295 293 296 293 295 295 295 291 293 291 295 293 291 291 293 291 288 286 285 283 282 283 283 282 281
292 292 292 293 294 294 294 294 292 291 291 292 291 289 285 290 293 295 296 295 296 295 295 296 293 297 297 293 296 295 298 296 296 296 295 293 290 290 288 286 286 285 286 289 287 286 287 283 282 281 280 280 279 279
291 291 292 293 294 294 294 294 291 291 291 290 288 285 292 294 294 292 293 294 296 295 295 295 293 293 294 294 293 291 298 298 299 297 298 297 293 289 286 284 283 282 282 281 282 281 283 282 281 280 279 278 278 277
291 291 290 292 293 294 294 292 291 290 290 291 291 293 293 291 292 292 293 294 295 295 292 294 294 293 294 291 293 297 299 299 301 299 301 295 287 286 283 282 280 279 279 278 279 279 279 279 278 278 276 276 275 274
290 291 291 290 291 293 293 291 291 291 292 292 291 292 291 288 291 293 293 296 295 291 289 291 291 293 294 293 294 296 300 299 293 297 294 286 286 284 282 281 279 278 278 277 277 276 275 274 274 274 273 273 274 274
289 290 289 290 291 291 292 292 291 291 291 285 286 287 288 291 291 288 291 290 290 287 290 290 291 295 294 294 287 289 292 298 299 299 292 284 284 282 281 280 279 277 275 274 273 274 273 273 274 274 274 274 275 274
289 290 290 290 290 291 292 292 291 291 289 289 291 288 285 287 291 293 288 292 295 290 289 292 293 295 295 297 297 294 299 300 295 292 283 281 282 281 280 278 276 274 272 272 273 273 274 274 273 274 274 273 273 274
290 290 289 289 289 290 292 291 291 290 289 287 290 287 285 287 288 285 297 298 295 287 289 291 294 293 297 292 298 297 297 293 289 282 278 281 280 278 277 276 274 274 274 274 274 274 274 274 274 273 273 273 273 273
289 290 290 289 290 290 291 291 290 287 287 290 289 288 284 286 292 293 294 296 294 295 297 297 295 298 296 298 299 298 295 284 280 282 280 280 278 276 275 274 274 275 275 275 275 275 274 274 274 273 273 273 273 273
289 289 290 289 289 291 290 290 289 289 289 283 283 282 284 289 291 292 291 292 295 296 293 295 293 295 298 296 289 283 285 281 277 277 275 274 276 276 276 274 275 275 275 275 275 275 275 275 274 275 275 275 274 274
289 289 289 289 290 290 290 289 289 287 283 281 281 283 287 289 286 287 289 290 291 292 291 290 289 289 289 284 283 275 279 278 279 274 269 275 276 276 276 276 276 276 275 276 276 276 277 277 277 277 276 276 275 275
289 289 288 289 290 291 290 289 290 289 286 285 285 288 288 288 286 281 288 289 292 295 295 291 288 284 284 280 278 277 278 278 278 277 272 269 275 276 275 275 275 276 276 276 276 277 277 277 277 277 277 276 276 275
290 289 289 289 290 291 290 289 289 289 288 288 288 290 288 287 286 284 290 290 293 288 287 281 279 282 276 279 282 280 279 280 280 279 278 275 274 276 276 277 277 276 276 276 276 277 277 277 277 277 276 276 275 273
289 289 289 290 289 290 291 290 289 288 289 289 289 289 285 283 282 287 288 290 289 284 281 282 283 278 278 278 279 281 280 280 279 278 278 277 275 275 275 276 275 275 276 277 278 278 278 278 277 277 276 274 273 272
288 288 289 288 289 289 287 290 290 290 289 287 290 288 284 282 284 287 282 285 283 278 279 280 280 283 280 280 281 280 280 279 277 277 277 277 277 277 277 277 277 276 276 278 278 278 278 278 277 276 275 274 273 272
289 289 287 287 286 287 287 288 291 290 287 288 289 285 287 285 286 282 285 281 279 277 279 277 282 280 280 281 278 279 279 279 277 277 277 277 276 277 277 277 278 278 279 279 279 279 278 277 276 275 274 274 273 273
286 285 286 285 289 288 286 285 289 289 282 282 288 282 285 284 282 280 282 280 284 283 277 281 282 281 281 276 279 280 280 279 278 277 277 278 278 278 278 278 279 279 279 279 278 278 277 276 275 275 274 274 274 274
287 286 290 289 291 289 288 285 285 282 281 283 282 280 279 278 282 283 283 280 282 285 284 284 281 280 280 282 280 280 280 280 279 278 278 279 279 279 278 277 277 278 280 280 279 278 276 275 275 274 274 274 273 273
289 290 289 289 290 292 289 286 288 286 283 282 279 279 279 282 280 280 280 280 280 283 284 285 283 283 281 282 282 282 282 281 281 281 280 280 280 280 281 279 278 280 280 279 278 278 277 275 274 274 274 274 273 273
284 285 284 287 288 287 289 286 285 285 281 283 281 281 280 279 278 276 276 280 280 281 283 284 283 283 283 283 282 282 281 281 281 281 280 280 280 280 280 280 280 280 279 278 277 277 276 276 276 275 274 273 273 272
283 284 284 282 284 283 281 282 281 281 280 281 278 275 276 277 275 274 276 276 280 282 281 280 280 282 281 281 281 282 282 281 279 272 271 270 274 278 279 279 279 279 278 277 276 276 276 276 276 275 274 273 272 272
283 284 283 281 283 281 275 277 276 272 275 277 278 276 274 274 273 271 272 274 277 279 280 281 281 281 278 278 277 277 279 280 281 280 276 274 277 280 279 279 279 278 277 276 275 274 274 274 274 274 273 272 272 271
283 283 282 281 279 275 273 270 272 271 271 272 270 272 273 271 274 271 270 270 273 277 278 278 278 279 278 278 277 276 276 278 278 279 279 280 280 279 278 277 277 276 275 274 273 273 272 272 272 272 272 271 271 270
277 278 279 277 276 272 271 273 273 272 269 270 271 266 271 270 267 268 269 268 270 270 270 273 276 277 277 278 278 279 279 279 278 278 278 278 277 277 276 275 274 274 272 271 271 270 270 270 270 270 270 269 269 269
273 272 270 268 271 272 269 272 274 275 273 271 270 269 265 264 266 267 268 269 269 269 269 270 272 276 277 278 278 278 278 277 277 277 277 276 276 276 274 273 272 272 271 271 270 270 270 269 269 270 270 270 269 269

GFSWCAN_925_thetae_126.txt.gz
Theta_e
298 298 297 297 296 296 296 295 296 295 294 293 293 295 297 298 298 298 297 296 295 293 295 297 300 299 298 296 296 296 295 295 296 297 300 300 301 303 303 305 307 304 305 302 303 302 300 297 298 300 299 298 296 295
298 298 297 296 296 296 295 295 295 295 294 293 293 295 297 298 297 297 297 296 296 293 294 297 298 298 298 297 296 295 296 297 297 294 293 297 300 298 301 302 301 300 302 302 303 302 298 296 297 296 296 296 295 294
297 297 297 296 296 296 296 296 295 294 294 293 293 295 296 297 297 297 296 296 295 291 293 295 298 297 298 297 298 295 295 296 297 294 295 296 300 294 299 300 301 302 299 301 300 299 297 294 294 293 294 293 291 290
297 297 297 296 296 296 296 295 295 294 293 293 293 294 295 296 297 296 296 295 295 292 295 297 296 296 299 299 297 298 298 298 296 293 296 294 298 297 299 299 300 300 298 298 299 298 296 294 293 292 292 292 291 289
296 297 297 296 296 296 295 295 295 294 293 293 293 294 295 295 296 296 295 296 296 293 294 295 294 296 298 297 298 298 298 296 293 292 291 294 296 295 296 298 293 297 297 294 297 295 296 294 293 292 290 291 289 289
295 296 297 297 297 296 295 295 295 293 293 293 293 294 293 295 295 294 291 295 296 295 291 295 293 295 297 298 298 297 297 295 295 295 290 290 293 294 291 293 296 296 296 296 296 293 292 290 290 289 290 289 287 286
297 297 297 296 296 296 294 294 293 293 292 293 293 293 292 292 293 291 291 295 296 295 290 292 295 296 299 298 295 298 299 297 297 297 295 295 295 296 295 297 296 296 295 294 294 293 291 290 288 289 288 286 285 283
296 297 298 296 295 295 294 293 293 292 293 293 292 291 291 293 293 294 295 295 296 295 293 290 294 298 299 298 298 294 299 299 298 299 295 295 295 294 291 295 295 295 293 292 289 287 286 284 283 284 284 284 283 282
294 295 296 295 295 295 294 293 291 291 293 292 292 290 290 290 290 293 296 295 295 294 292 291 295 297 298 297 295 293 293 297 293 294 295 294 292 297 292 297 294 291 293 291 287 285 284 283 282 281 281 281 281 280
293 294 296 296 295 294 293 292 291 293 293 291 290 289 285 291 293 295 294 295 293 295 294 293 292 299 298 294 296 293 297 297 296 295 293 293 297 288 288 287 286 286 288 291 289 287 284 283 282 281 280 279 278 278
293 293 294 293 293 293 293 291 292 292 291 290 287 287 291 294 293 290 290 291 295 295 294 294 293 297 294 294 294 290 298 298 298 297 297 293 294 289 286 284 283 282 282 282 283 283 283 282 281 280 279 278 277 276
292 293 293 293 292 293 292 291 292 291 290 290 291 293 293 290 290 288 290 293 294 296 293 294 293 293 294 290 293 297 298 299 300 297 298 293 286 286 284 282 280 280 280 279 279 279 279 279 278 277 276 275 274 274
291 293 293 295 293 294 292 291 290 291 292 291 290 287 286 288 287 289 291 295 294 292 291 293 292 292 295 292 296 297 299 298 293 298 293 289 285 284 282 281 279 278 278 277 277 276 275 274 275 274 273 273 274 274
291 291 292 293 293 293 292 291 291 292 291 283 284 288 286 290 290 288 292 292 290 288 287 287 293 293 290 292 286 289 292 297 299 299 292 283 284 282 281 280 279 277 275 274 273 273 272 272 273 273 274 274 275 274
291 290 291 292 293 293 291 291 291 290 289 286 285 283 287 284 288 291 287 290 289 293 288 290 291 294 292 293 296 293 294 292 292 290 285 278 282 281 280 278 275 274 272 271 272 272 272 273 273 273 273 273 274 274
289 290 290 290 291 292 291 291 291 290 288 286 289 288 283 286 283 282 292 294 292 291 292 292 293 289 293 291 298 296 296 291 288 283 277 281 280 279 277 275 274 273 273 273 273 273 273 273 273 273 272 273 273 273
288 289 289 290 291 290 291 291 291 288 287 288 287 288 289 285 285 285 291 295 293 295 299 298 293 294 294 297 297 297 290 286 279 276 278 280 279 276 274 274 273 273 273 273 273 273 273 273 273 273 272 273 273 273
289 289 289 290 291 291 290 290 289 288 288 282 283 279 279 288 291 291 290 291 293 296 296 294 292 294 297 295 288 286 279 276 278 275 273 274 275 275 275 273 273 274 274 274 274 274 273 273 273 274 274 273 273 273
289 289 289 289 289 290 290 290 289 286 282 279 278 281 286 288 287 285 284 289 290 292 293 290 289 289 288 285 284 275 273 277 278 273 269 274 276 275 275 274 274 274 274 275 274 274 275 275 276 275 275 275 274 274
288 289 289 290 290 290 290 290 289 288 286 284 282 286 285 286 284 282 287 287 292 294 295 290 289 287 285 282 279 278 276 277 277 276 271 269 275 275 274 274 273 275 274 275 275 276 276 276 276 277 277 276 275 275
289 289 289 290 290 290 289 288 289 288 286 285 285 288 284 286 286 283 285 289 292 293 293 286 279 275 278 277 280 279 278 279 280 279 279 274 273 275 274 275 275 274 274 274 274 275 276 277 277 277 276 276 275 274
289 289 288 289 289 289 290 288 288 286 286 287 288 288 285 283 283 287 286 288 289 286 282 279 277 283 277 277 278 280 280 280 279 278 277 276 274 274 274 274 274 273 274 275 276 276 277 277 277 277 276 275 274 273
288 288 288 287 286 287 287 289 288 289 289 287 290 289 287 285 285 286 285 285 282 277 277 278 279 280 278 278 280 280 280 279 277 276 276 276 276 276 275 275 275 274 274 276 277 277 278 278 277 277 276 275 274 273
288 288 286 285 285 281 287 288 291 290 288 289 288 287 286 286 285 283 285 281 276 278 278 276 280 278 279 280 276 277 279 279 277 277 277 276 275 275 276 275 276 276 277 278 278 278 278 278 278 277 276 274 273 273
284 283 285 282 287 287 288 284 289 290 284 286 286 282 287 283 281 280 281 278 284 285 283 280 281 279 278 274 276 279 279 279 277 276 277 277 277 276 276 276 277 277 278 278 278 278 278 278 277 276 275 275 274 273
281 279 286 285 286 288 287 284 283 283 280 283 284 279 277 278 284 283 282 281 280 283 283 283 284 282 279 280 278 278 279 279 279 277 277 277 277 277 276 276 275 277 278 279 279 279 278 277 277 276 275 274 274 273
284 284 288 288 291 292 289 287 288 285 284 283 278 277 279 282 279 279 279 279 279 280 279 279 282 283 282 281 282 281 281 280 280 280 280 278 278 279 279 277 277 279 279 279 279 280 279 278 276 275 275 274 274 273
284 285 287 285 288 288 289 288 290 289 287 284 282 282 280 281 278 274 274 276 275 277 279 281 282 283 283 283 283 281 280 280 280 280 279 279 279 279 280 280 280 280 280 280 280 280 279 278 277 276 275 274 274 273
285 285 284 282 282 281 282 285 284 282 280 282 282 276 276 275 271 271 272 271 274 278 279 280 280 281 281 281 280 280 280 280 279 272 271 270 275 279 280 280 280 280 280 279 279 278 277 277 276 276 275 275 274 273
281 282 280 277 281 282 278 277 276 273 276 277 278 276 275 272 270 269 269 269 270 272 276 276 276 278 278 279 278 277 278 279 279 280 276 274 278 281 281 281 281 280 279 278 277 276 276 275 275 275 274 273 273 272
284 284 283 281 281 275 275 272 272 273 273 272 271 273 273 272 270 268 268 268 269 270 271 270 274 275 276 275 276 276 276 278 278 278 279 279 280 280 280 280 279 278 278 276 276 275 275 274 273 273 273 272 272 271
281 282 282 282 280 276 275 275 274 273 273 273 272 269 270 269 268 267 267 267 267 268 268 269 268 270 273 275 277 278 278 279 279 278 278 278 278 278 278 277 277 276 275 274 274 273 272 272 272 272 271 271 271 270
276 275 273 274 276 277 276 276 276 275 273 271 269 266 263 264 265 266 267 267 266 266 267 269 269 271 273 274 276 277 277 277 277 277 276 276 276 276 275 274 274 274 273 272 271 270 270 270 270 270 270 270 269 269

GFSWCAN_925_thetae_129.txt.gz
Theta_e
298 298 298 298 297 297 296 296 296 295 293 293 294 297 298 298 298 298 296 296 297 296 296 298 299 299 298 297 300 298 299 298 299 301 302 303 304 304 305 305 305 303 303 302 302 303 303 297 298 300 297 298 296 295
297 299 298 298 297 297 296 295 296 294 293 292 295 297 297 298 297 297 297 296 296 296 296 297 297 297 297 297 298 296 297 298 299 299 299 300 303 302 303 306 303 305 303 302 302 302 298 296 296 295 294 294 293 292
298 298 298 297 297 296 296 296 295 294 293 292 295 297 297 297 297 297 296 295 296 295 295 297 297 297 297 298 297 299 296 298 298 295 298 299 302 300 303 302 303 302 300 302 300 299 297 295 294 293 293 292 291 290
298 297 297 296 296 296 295 295 295 294 293 293 295 296 297 297 296 296 296 295 295 294 300 297 295 296 297 296 298 298 298 296 295 296 299 299 300 299 301 301 303 301 300 299 300 298 295 294 293 292 292 291 291 288
298 297 297 296 296 296 296 296 295 293 293 293 295 296 297 296 295 295 296 296 295 296 298 297 295 295 297 297 298 298 297 296 296 298 299 299 298 299 298 300 300 298 299 300 299 296 296 295 292 291 292 290 289 288
297 297 297 296 296 296 296 295 294 293 293 294 294 295 296 295 295 295 293 295 295 295 296 298 293 295 296 297 297 297 297 297 297 298 298 296 295 298 300 300 297 297 297 297 296 294 293 291 289 289 290 287 286 285
297 298 296 296 296 295 295 294 293 293 293 293 293 294 294 294 294 292 293 295 296 295 294 297 299 295 298 297 295 299 299 298 299 298 298 297 297 299 297 299 298 297 296 295 294 292 292 290 289 288 286 285 284 283
298 297 296 296 296 295 295 294 293 293 293 293 291 292 294 295 294 294 295 296 295 294 292 296 298 301 298 298 299 294 300 300 298 298 297 298 297 297 298 296 296 295 293 292 289 289 288 285 285 285 284 283 282 281
295 297 297 296 295 295 294 293 293 293 292 291 291 293 292 291 291 295 295 295 295 293 294 294 299 300 297 297 296 296 296 299 294 297 298 297 297 299 296 296 296 294 294 290 287 286 285 284 283 282 282 282 281 280
296 297 297 295 295 294 293 293 292 293 291 290 290 289 287 292 295 295 294 293 293 295 294 295 293 301 297 296 296 297 297 297 297 297 296 298 300 289 290 291 290 291 291 289 288 286 285 284 282 281 280 279 279 278
295 296 295 295 294 293 292 292 293 292 291 290 288 290 291 294 292 290 291 293 294 294 293 294 295 299 295 298 296 294 298 298 297 299 299 299 298 292 288 286 285 285 285 285 285 286 285 284 282 281 279 278 277 276
296 296 295 295 293 292 292 293 292 291 290 290 292 293 292 290 290 291 292 293 294 296 293 294 294 295 297 293 297 297 298 299 300 297 300 299 295 287 286 284 283 282 282 282 282 281 281 281 280 278 277 276 275 273
293 294 294 294 293 292 292 292 291 291 293 291 290 287 287 289 288 289 291 295 294 293 293 293 295 296 296 295 297 298 298 298 296 299 298 297 289 286 284 282 281 280 280 279 278 277 276 275 275 275 273 273 273 273
294 293 293 293 293 292 292 290 291 292 290 286 287 289 286 288 289 290 293 294 291 292 291 292 294 296 293 295 294 296 296 297 297 297 298 293 287 284 283 281 280 279 277 276 274 273 273 273 272 273 274 274 274 273
292 292 292 292 292 291 291 291 291 290 289 287 286 285 289 285 287 291 289 291 291 292 292 294 294 295 294 294 295 294 295 295 295 296 294 286 284 283 281 280 278 276 273 272 272 271 271 272 272 272 273 274 274 273
291 291 291 292 292 291 292 291 290 290 287 287 288 287 285 288 287 287 291 294 292 294 292 295 294 293 296 295 298 297 296 295 295 292 287 283 282 281 280 278 276 274 273 272 272 272 272 272 273 272 273 273 273 273
289 290 291 291 291 291 291 290 290 287 286 287 283 286 289 288 287 288 290 294 293 294 299 298 295 296 295 298 296 296 294 293 290 285 282 283 282 280 277 275 273 273 272 272 272 272 273 273 272 272 272 272 273 272
290 290 290 290 291 290 290 290 288 288 288 283 284 281 286 282 288 290 289 291 293 296 296 298 294 295 294 296 294 293 288 281 280 281 281 279 278 277 276 275 273 273 273 272 273 273 272 272 272 273 273 273 273 273
289 290 290 290 290 290 290 289 288 286 283 282 281 283 288 286 288 286 287 288 290 291 293 292 292 295 294 292 292 287 281 283 283 279 276 273 277 276 275 274 273 273 273 273 272 272 272 273 274 274 273 273 273 273
289 289 289 289 290 289 290 289 289 288 288 286 284 287 286 286 287 287 287 288 291 293 295 294 292 292 292 290 286 287 283 279 279 279 277 274 274 275 274 274 274 273 273 273 273 274 273 273 274 275 275 275 274 274
289 289 290 290 289 290 288 288 289 288 287 287 286 288 286 286 287 287 286 288 290 292 292 290 288 284 277 278 279 280 279 280 282 283 281 278 273 275 274 274 274 274 274 274 274 274 274 275 276 276 276 276 276 275
289 288 289 289 288 289 290 288 288 286 287 288 288 289 286 284 285 287 286 287 289 287 285 285 284 283 283 281 279 281 281 280 280 278 278 276 275 275 274 274 274 274 274 274 274 275 275 276 277 277 277 276 275 274
288 288 288 287 284 285 289 289 287 288 287 286 289 288 286 285 286 287 289 287 284 279 279 279 278 279 279 278 279 279 280 280 279 278 277 278 277 276 275 274 275 274 274 274 275 276 276 277 277 277 276 276 275 273
287 287 281 283 284 281 287 287 290 290 288 288 288 287 287 287 286 286 288 283 280 282 283 282 280 281 280 280 279 278 278 279 278 276 276 276 276 276 275 275 275 275 276 276 275 276 277 277 277 276 276 275 274 273
283 281 283 283 287 287 287 283 286 290 287 287 288 287 287 285 286 284 284 283 283 284 283 282 283 283 283 279 277 278 279 279 278 278 276 277 276 275 275 275 275 276 276 276 276 276 277 277 277 277 276 276 275 274
283 279 285 282 280 286 286 285 287 287 283 285 286 282 282 285 287 286 283 280 280 280 280 280 280 283 283 281 280 279 279 279 279 278 277 277 277 276 276 276 276 275 276 277 277 277 277 277 277 277 276 276 275 274
283 281 287 288 290 292 289 289 288 287 286 285 283 281 284 284 282 281 279 276 276 276 275 277 278 280 283 282 282 281 281 279 279 280 280 279 278 278 277 277 276 278 278 277 277 278 278 278 277 277 276 276 275 275
285 285 286 285 288 288 290 289 289 288 288 285 284 287 285 283 282 274 275 273 271 272 275 277 278 279 280 281 281 280 279 279 279 279 279 278 278 278 278 278 278 278 279 278 278 278 279 279 279 278 277 276 275 275
285 285 284 283 284 284 284 286 285 283 281 285 287 282 277 273 270 269 269 269 270 271 273 274 276 277 277 278 279 278 278 278 279 278 278 278 276 278 279 279 279 279 279 280 279 279 279 279 279 278 277 276 275 274
281 281 280 277 281 282 278 277 278 275 277 278 278 277 274 271 268 267 267 268 268 269 269 271 272 274 274 275 275 276 276 277 278 279 279 278 278 280 280 280 280 280 280 279 279 278 277 276 276 275 275 274 274 273
283 283 282 280 279 276 275 274 273 274 274 275 274 275 273 270 268 267 266 267 267 268 268 268 269 270 270 272 274 276 277 277 277 278 278 279 279 280 279 279 279 279 278 278 277 276 276 275 275 274 274 273 272 272
281 282 282 280 279 275 273 275 276 276 274 275 273 272 271 271 269 267 265 266 266 266 266 267 267 268 270 272 274 275 277 277 277 277 277 277 278 278 278 278 278 277 276 276 275 274 274 274 273 272 272 271 271 270
278 278 277 278 279 279 277 278 278 277 276 275 271 270 267 269 268 266 266 265 265 265 266 267 269 269 270 271 272 274 275 275 275 276 276 276 276 275 275 275 275 274 274 273 273 272 271 271 270 270 270 270 269 269